Regional Weather Roundup
Issued by NWS

Home | Current Version | Previous Version | Text Only | Print | Product List | Glossary Off
Versions: 1 2 3 4 5 6 7 8 9 10 11 12 13 14 15 16 17 18 19 20 21 22 23 24 25 26 27 28 29 30 31 32 33 34 35 36 37 38 39 40 41 42 43 44 45 46 47 48 49 50

385
ASUS43 KFSD 121202
RWRSD

WEATHER ROUNDUP FOR SOUTH DAKOTA
NATIONAL WEATHER SERVICE SIOUX FALLS SD
600 AM CST FRI FEB 12 2016

NOTE: "FAIR" INDICATES FEW OR NO CLOUDS BELOW 12,000 FEET WITH NO
SIGNIFICANT WEATHER AND/OR OBSTRUCTIONS TO VISIBILITY.


SDZ001>005-009-010-012>017-121300-
NORTHWEST AND NORTH CENTRAL SOUTH DAKOTA

CITY           SKY/WX    TMP DP  RH WIND       PRES   REMARKS
BUFFALO          N/A     26  21  81 N9        30.27R WCI  17
FAITH            N/A     23  19  85 N12       30.35R WCI  12
MOBRIDGE       CLOUDY    20  13  74 N6        30.38R WCI  12
$$

SDZ012>016-024>037-041>051-057-063-072>074-121300-
SOUTHWEST AND SOUTH CENTRAL SOUTH DAKOTA

CITY           SKY/WX    TMP DP  RH WIND       PRES   REMARKS
RAPID CTY ARPT CLOUDY    30  27  88 NE12      30.32R WCI  20
PIERRE         CLOUDY    21  16  81 N9        30.41R WCI  11
CUSTER         CLEAR     28  21  75 SE6       30.22R WCI  22
ELLSWORTH AFB  CLOUDY    30  28  93 NE6       30.32  WCI  24
PHILIP         CLOUDY    27  23  85 NE13      30.37R WCI  16
PINE RIDGE     CLOUDY    32  28  85 NE8       30.31R WCI  25
WINNER         MIX PCPN  24  21  88 N14       30.37R FOG     WCI  12
$$

SDZ004>011-016>023-039-040-121300-
NORTHEAST SOUTH DAKOTA

CITY           SKY/WX    TMP DP  RH WIND       PRES   REMARKS
ABERDEEN       CLOUDY    13   6  74 N15       30.45R WCI  -3
WATERTOWN      CLOUDY    10   4  76 N12       30.35R WCI  -5
BROOKINGS      CLOUDY    11   7  84 N16       30.34R WCI  -6
SISSETON         N/A      5  -2  72 N16       30.43R WCI -14
$$

SDZ017-020-022-023-036>040-048>070-121300-
SOUTHEAST SOUTH DAKOTA

CITY           SKY/WX    TMP DP  RH WIND       PRES   REMARKS
SIOUX FALLS    CLOUDY    15  10  80 N14       30.36R WCI   0
HURON          CLOUDY    15  11  83 N9        30.43R WCI   3
CHAMBERLAIN    CLOUDY    19  16  86 N12       30.38S WCI   7
MITCHELL       CLOUDY    17  12  80 N16       30.41R WCI   2
YANKTON        CLOUDY    19  14  79 N10       30.39R WCI   8
$$

ABBREVIATIONS USED IN REMARKS
   TC - TEMPERATURE IN CELSIUS
  WCI - WIND CHILL INDEX
   HX - HEAT INDEX
  VSB - VISIBILITY





USA.gov is the U.S. government's official web portal to all federal, state and local government web resources and services.